星链-5057 (STARLINK-5057 )

导读 | 星芒AI

STARLINK-5057 是 SpaceX Starlink 卫星互联网项目中的一颗低轨卫星,属于第5批部署的星链卫星之一。该卫星由 SpaceX 制造并发射,旨在为全球用户提供高速互联网服务。它运行在约550公里高度的近地轨道,采用先进通信技术,支持宽带数据传输。STARLINK-5057 与数千颗其他星链卫星共同构建星座网络,提升覆盖范围和连接稳定性,尤其服务于偏远和网络基础设施薄弱地区。

基本信息
目录编号:
53908
目录名称:
STARLINK-5057
国际标识:
2022-119Y
轨道中心:
EARTH
卫星名称:
星链-5057
卫星全名:
星链-5057 (STARLINK-5057 )
卫星状态:
在轨 (已飞行1184 天)
发射日期:
2022-09-24 UTC
国别 :
美国 (US)
星等 :
--
轨道信息
数据来源 国际轨道数据
星历时间: 2025-12-21T11:13:15+0800
6小时前
查看轨道信息
半长轴: 6917.883km
偏心率: 0.0001308
轨道倾角: 53.218°
近地点辐角 89.437°
升交点赤经 306.912°
平近点角 270.677°
近地点: 538.841km
远地点: 540.651km
周期: 95.438分钟
每日圈数: 15.088394
详细信息
固有亮度:
5
最大亮度:
2.5
卫星平台:
Starlink v1.5
覆盖范围:
全球
运营商:
太空探索技术公司
运营商所在国:
美国
制造商(研发单位):
太空探索技术公司
制造商所在国:
美国
使用方式:
暂无
卫星简介
星链(Starlink)计划是由太空探索技术公司(SpaceX)提出的一个巨型低轨卫星互联网星座项目,计划在2019年至2024年间在太空搭建由约1.2万颗卫星组成的“星链”网络,其中1584颗将部署在地球上空550千米处的近地轨道,并从2020年开始工作。该卫星仍在工作。
2D轨道图
3D轨道图
轨道高度分析图
轨道倾角分析图
轨道综合分析图
查看轨道综合分析图